Location: �terpigny
(49.8910°N, 2.9249°E)
Time: 06:50:34
(UTC+00:00)

Cosmos 1908 - Pass Details

Date: 05 June 2022
Orbit: 505 x 523 km, 82.5° (Epoch: 03 July)

Event Time Altitude Azimuth Distance (km) Brightness Sun altitude
Rises 22:32:10 0° 350° (N) 2,623 8.6 -15.6°
Reaches altitude 10° 22:34:18 10° 350° (N) 1,733 7.2 -15.7°
Maximum altitude 22:38:06 88° 81° (E) 515 3.1 -15.9°
Enters shadow 22:39:41 34° 169° (S) 858 3.7 -16.0°
